Peoria, IL

1:06 AM CST on February 14, 2016 (GMT -0600)
Greater Peoria Regional

Weather History for KPIA - October, 2011

Change the Weather History Date:

Tuesday, October 25, 2011

  Actual Average Record
Temperature  
Mean Temperature 65 °F 51 °F  
Max Temperature 79 °F 61 °F 81 °F (1939)
Min Temperature 51 °F 41 °F 21 °F (1887)
Degree Days  
Heating Degree Days 0 14  
Month to date heating degree days 197 265  
Since 1 July heating degree days 331 355  
Cooling Degree Days 0 0  
Month to date cooling degree days 16 12  
Year to date cooling degree days 1265 1036  
Growing Degree Days 14 (Base 50)    
Moisture  
Dew Point 46 °F    
Average Humidity 53    
Maximum Humidity 78    
Minimum Humidity 27    
Precipitation  
Precipitation 0.08 in 0.10 in 1.13 in (1932)
Month to date precipitation 0.64 2.25  
Year to date precipitation 32.26 30.35  
Snow  
Snow 0.00 in 0.00 in T in (1962)
Month to date snowfall 0.0 0.0  
Since 1 July snowfall 0.0 0.0  
Since 1 September snowfall 0.0 0.0  
Snow Depth 0.00 in    
Sea Level Pressure  
Sea Level Pressure 29.86 in    
Wind  
Wind Speed 14 mph (SSW)    
Max Wind Speed 32 mph    
Max Gust Speed 40 mph    
Visibility 10 miles    
Events Rain , Thunderstorm    
T = Trace of Precipitation, MM = Missing Value Source: NWS Daily Summary

Daily Weather History Graph

Daily Weather History Graph

Search for Another Location

Airport or City:

Trip Planner

Search our weather history database for the weather conditions in past years. The results will help you decide how hot, cold, wet, or windy it might be!

Date:

Astronomy

Oct. 25, 2011 Rise Set
Actual Time 7:20 AM CDT 6:04 PM CDT
Civil Twilight 6:52 AM CDT 6:32 PM CDT
Nautical Twilight 6:20 AM CDT 7:04 PM CDT
Astronomical Twilight 5:48 AM CDT 7:36 PM CDT
Moon 5:52 AM CDT (10/25) 5:05 PM CDT (10/25)
Length of Visible Light 11h 39m
Length of Day
10h 43m
Waning Crescent, 2% of the Moon is Illuminated
Oct 25
Waning Crescent
Oct 26
New
Nov 2
First Quarter
Nov 10
Full
Nov 18
Last Quarter

Hourly Weather History & Observations

Time (CDT) Temp. Dew Point Humidity Pressure Visibility Wind Dir Wind Speed Gust Speed Precip Events Conditions
12:54 AM 54.0 °F 39.0 °F 57% 30.09 in 10.0 mi South 10.4 mph - N/A   Clear
1:54 AM 54.0 °F 37.9 °F 55% 30.07 in 10.0 mi South 11.5 mph - N/A   Clear
2:54 AM 54.0 °F 37.9 °F 55% 30.05 in 10.0 mi South 13.8 mph - N/A   Clear
3:54 AM 52.0 °F 37.9 °F 59% 30.03 in 10.0 mi South 13.8 mph - N/A   Clear
4:54 AM 52.0 °F 37.9 °F 59% 30.02 in 10.0 mi South 9.2 mph - N/A   Clear
5:54 AM 52.0 °F 39.0 °F 61% 30.00 in 10.0 mi South 11.5 mph - N/A   Clear
6:54 AM 51.1 °F 42.1 °F 71% 29.99 in 10.0 mi South 10.4 mph - N/A   Clear
7:54 AM 52.0 °F 44.1 °F 74% 29.98 in 10.0 mi South 12.7 mph - N/A   Clear
8:54 AM 55.9 °F 48.0 °F 75% 29.96 in 10.0 mi South 11.5 mph - N/A   Clear
9:54 AM 61.0 °F 50.0 °F 67% 29.96 in 10.0 mi SSW 11.5 mph - N/A   Mostly Cloudy
10:54 AM 64.0 °F 48.9 °F 58% 29.92 in 10.0 mi South 15.0 mph - 0.01 in   Scattered Clouds
11:54 AM 71.1 °F 45.0 °F 39% 29.88 in 10.0 mi SSW 21.9 mph 28.8 mph N/A   Partly Cloudy
12:54 PM 75.9 °F 39.9 °F 27% 29.83 in 10.0 mi SW 23.0 mph 40.3 mph N/A   Clear
1:54 PM 75.2 °F 39.2 °F 27% 29.79 in 10.0 mi SSW 23.0 mph 32.2 mph N/A   Clear
2:54 PM 75.0 °F 42.1 °F 31% 29.75 in 10.0 mi South 17.3 mph - N/A   Clear
3:54 PM 78.1 °F 42.1 °F 28% 29.71 in 10.0 mi South 24.2 mph 33.4 mph N/A   Clear
4:54 PM 77.0 °F 48.9 °F 37% 29.73 in 10.0 mi SSW 18.4 mph 25.3 mph N/A   Clear
5:54 PM 75.0 °F 50.0 °F 41% 29.73 in 10.0 mi SSW 13.8 mph - N/A   Mostly Cloudy
6:54 PM 73.0 °F 46.0 °F 38% 29.73 in 10.0 mi South 12.7 mph - N/A   Overcast
7:54 PM 71.6 °F 44.6 °F 38% 29.72 in 10.0 mi South 12.7 mph - N/A   Mostly Cloudy
8:40 PM 66.2 °F 53.6 °F 64% 29.73 in 9.0 mi SW 16.1 mph 25.3 mph N/A Rain , Thunderstorm Thunderstorms and Rain
8:54 PM 63.0 °F 57.9 °F 84% 29.73 in 7.0 mi SSW 12.7 mph - 0.06 in Rain , Thunderstorm Thunderstorms and Rain
9:21 PM 62.6 °F 57.2 °F 82% 29.73 in 10.0 mi SSW 4.6 mph - 0.01 in   Mostly Cloudy
9:54 PM 62.1 °F 57.0 °F 84% 29.73 in 10.0 mi South 5.8 mph - 0.01 in   Mostly Cloudy
10:54 PM 64.0 °F 55.0 °F 73% 29.74 in 10.0 mi SSW 9.2 mph - N/A   Scattered Clouds
11:54 PM 64.0 °F 57.9 °F 80% 29.74 in 10.0 mi SW 11.5 mph - N/A   Clear